星链-35574(STARLINK-35574)

导读

STARLINK-35574是美国于2025年10月19日发射的卫星,隶属于SpaceX星链互联网星座项目。该卫星承担着为全球偏远、欠发达及网络基础设施薄弱地区提供高速低延迟互联网接入服务的任务,依托星链星座的低轨布局,进一步完善了星链全球网络覆盖能力,推动星座组网进程。

Basic Information
目录编号:
66111
目录名称:
STARLINK-35574
国际标识:
2025-236AB
轨道中心:
EARTH
卫星名称:
星链-35574
卫星全名:
星链-35574(STARLINK-35574)
卫星状态:
在轨 (已飞行320 天)
发射日期:
2025-10-19 UTC
国别 :
美国 (US)
星等 :
--
Orbit Information
数据来源 国际轨道数据 AOE轨道数据
星历时间 2026-09-04T05:21:41+0800
9小时前
查看轨道信息
2026-08-31T06:00:00+0800
4天前
查看轨道信息
半长轴 6840.898km 6840.728km
偏心率 0.0001404 0.0001364
轨道倾角 53.159° 53.161°
近地点辐角 59.641° 69.057°
升交点赤经 355.036° 13.607°
平近点角 300.473° 290.576°
近地点 461.8km 461.657km
远地点 463.722km 463.525km
周期 93.849分钟 93.845分钟
每日圈数 15.343806 15.344381
Detailed Information
固有亮度:
5
最大亮度:
2.5
卫星平台:
Starlink V1.0
覆盖范围:
全球
运营商:
太空探索技术公司
运营商所在国:
美国
制造商(研发单位):
太空探索技术公司
制造商所在国:
美国
使用方式:
暂无
Satellite Introduction
Starlink 计划是 SpaceX 推出的全球卫星互联网项目,通过发射低轨道卫星,为全球尤其是偏远地区提供高速、低延迟的互联网服务。自 2019 年起,Starlink 已部署数千颗卫星,旨在缩小全球数字鸿沟,推动互联网普及。该项目还为军事、航空等行业提供通信支持,带来广泛经济效益。
2D Orbit Map
3D Orbit Map
Orbit Altitude Analysis Chart
Orbit Inclination Analysis Chart
Orbit Comprehensive Analysis Chart
View Comprehensive Chart
Conjunction Data List
Event ID Objects TCA Miss Dist (km) Collision Risk Probability Collision Risk Index (CRI) Action
CDM_260905-071505-287506-611121
2026-09-05T
07:15:09+0000
0.277 km
中距离
4.211696E-4 高风险 0.87
CDM_260904-154904-975106-611121
2026-09-04T
15:49:38+0000
0.476 km
远距离
1.490975E-4 高风险 0.78
CDM_260905-151206-189206-611121
2026-09-05T
15:12:10+0000
0.962 km
远距离
8.810768E-6 低风险 0.54
CDM_260905-125106-189206-611121
2026-09-05T
12:51:29+0000
1.256 km
极远距离
3.576084E-6 低风险 0.46
CDM_260904-084704-975106-611121
2026-09-04T
08:47:33+0000
1.570 km
极远距离
3.540259E-6 低风险 0.46
CDM_260905-084805-287506-611121
2026-09-05T
08:48:56+0000
2.690 km
极远距离
1.037522E-6 低风险 0.35
CDM_260905-054105-287506-611121
2026-09-05T
05:41:21+0000
2.982 km
极远距离
9.088069E-7 极低风险 0.34
CDM_260904-153905-284406-611121
2026-09-04T
15:39:30+0000
2.857 km
极远距离
7.898798E-7 极低风险 0.33
CDM_260905-164506-189206-611121
2026-09-05T
16:45:58+0000
2.742 km
极远距离
5.541986E-7 极低风险 0.3